This is the latest recevied weather packets stored in our database for station/object DL9RAN-11. If no packets are shown the sender has not sent any weather packets the latest 10 day(s).
| Time | Temp. | Humidity | Pressure | Rain* | Wind** | Luminosity | Snow |
|---|---|---|---|---|---|---|---|
| 1787988429 | 19.44° C | 78% | 1021.2 hPa | - | - | - | - |
| 1787988129 | 19.44° C | 78% | 1021.2 hPa | - | - | - | - |
| 1787987829 | 19.44° C | 81% | 1021.1 hPa | - | - | - | - |
| 1787987528 | 19.44° C | 81% | 1021.1 hPa | - | - | - | - |
| 1787987228 | 18.89° C | 81% | 1021.1 hPa | - | - | - | - |
| 1787986927 | 17.78° C | 82% | 1021.2 hPa | - | - | - | - |
| 1787986627 | 17.78° C | 82% | 1021 hPa | - | - | - | - |
| 1787986327 | 17.78° C | 82% | 1021.1 hPa | - | - | - | - |
| 1787986027 | 17.78° C | 83% | 1020.9 hPa | - | - | - | - |
| 1787985726 | 17.78° C | 83% | 1020.9 hPa | - | - | - | - |
| 1787985426 | 17.78° C | 84% | 1020.9 hPa | - | - | - | - |
| 1787985126 | 17.22° C | 84% | 1020.9 hPa | - | - | - | - |
| 1787984826 | 16.67° C | 84% | 1020.9 hPa | - | - | - | - |
| 1787984525 | 16.67° C | 84% | 1020.8 hPa | - | - | - | - |
| 1787984225 | 16.67° C | 84% | 1020.8 hPa | - | - | - | - |
| 1787983925 | 16.11° C | 84% | 1020.4 hPa | - | - | - | - |
| 1787983625 | 16.11° C | 84% | 1020.4 hPa | - | - | - | - |
| 1787983324 | 16.11° C | 84% | 1020.4 hPa | - | - | - | - |
| 1787983024 | 16.11° C | 84% | 1020.5 hPa | - | - | - | - |
| 1787982724 | 16.11° C | 84% | 1020.5 hPa | - | - | - | - |
| 1787982424 | 15.56° C | 84% | 1020.4 hPa | - | - | - | - |
| 1787982123 | 15.56° C | 84% | 1020.3 hPa | - | - | - | - |
| 1787981823 | 15.56° C | 84% | 1020.2 hPa | - | - | - | - |
| 1787981523 | 15.56° C | 84% | 1020.1 hPa | - | - | - | - |
| 1787981222 | 15.56° C | 84% | 1020.1 hPa | - | - | - | - |
* Rain since midnight (hover to see other rain measurements)
** Current wind speed in m/s (hover to see current wind gust speed)